TimeEDT,TemperatureF,Dew PointF,Humidity,Sea Level PressureIn,VisibilityMPH,Wind Direction,Wind SpeedMPH,Gust SpeedMPH,PrecipitationIn,Events,Conditions,WindDirDegrees,DateUTC
12:54 AM,30.9,21.9,69,30.03,10.0,West,6.9,-,N/A,,Mostly Cloudy,280,2013-03-24 04:54:00
1:54 AM,32.0,23.0,69,30.01,10.0,WNW,5.8,-,N/A,,Mostly Cloudy,290,2013-03-24 05:54:00
2:54 AM,30.9,23.0,72,29.98,10.0,WNW,6.9,-,N/A,,Mostly Cloudy,290,2013-03-24 06:54:00
3:54 AM,30.0,23.0,75,29.98,10.0,West,5.8,-,N/A,,Scattered Clouds,280,2013-03-24 07:54:00
4:54 AM,28.0,21.9,78,29.99,10.0,West,5.8,-,N/A,,Partly Cloudy,280,2013-03-24 08:54:00
5:54 AM,27.0,21.9,81,29.99,10.0,NW,4.6,-,N/A,,Partly Cloudy,310,2013-03-24 09:54:00
6:54 AM,24.1,19.9,84,30.00,10.0,WSW,5.8,-,N/A,,Partly Cloudy,250,2013-03-24 10:54:00
7:54 AM,26.1,23.0,88,30.00,10.0,WSW,3.5,-,N/A,,Mostly Cloudy,240,2013-03-24 11:54:00
8:54 AM,32.0,25.0,75,29.99,10.0,WNW,5.8,-,N/A,,Mostly Cloudy,300,2013-03-24 12:54:00
9:54 AM,35.1,25.0,67,29.99,10.0,North,4.6,-,N/A,,Mostly Cloudy,350,2013-03-24 13:54:00
10:54 AM,35.1,21.9,59,29.98,10.0,North,6.9,-,N/A,,Mostly Cloudy,10,2013-03-24 14:54:00
11:54 AM,36.0,21.0,55,29.96,10.0,Variable,3.5,-,N/A,,Mostly Cloudy,0,2013-03-24 15:54:00
12:54 PM,36.0,21.9,57,29.92,10.0,NNE,8.1,-,N/A,,Mostly Cloudy,30,2013-03-24 16:54:00
1:54 PM,37.0,21.9,54,29.90,10.0,North,5.8,-,N/A,,Mostly Cloudy,350,2013-03-24 17:54:00
2:54 PM,37.9,23.0,55,29.87,10.0,NNE,8.1,-,N/A,,Mostly Cloudy,30,2013-03-24 18:54:00
3:54 PM,37.0,19.9,50,29.84,10.0,NNE,10.4,-,N/A,,Mostly Cloudy,30,2013-03-24 19:54:00
4:54 PM,36.0,19.9,52,29.84,10.0,NE,8.1,-,N/A,,Overcast,50,2013-03-24 20:54:00
5:54 PM,35.1,19.9,54,29.83,10.0,ENE,9.2,-,N/A,,Overcast,70,2013-03-24 21:54:00
6:54 PM,34.0,19.9,56,29.83,10.0,ENE,11.5,16.1,N/A,,Overcast,60,2013-03-24 22:54:00
7:54 PM,33.1,21.0,61,29.82,10.0,East,10.4,-,N/A,,Overcast,90,2013-03-24 23:54:00
8:54 PM,33.8,21.2,60,29.78,10.0,ENE,8.1,-,N/A,,Overcast,70,2013-03-25 00:54:00
9:54 PM,33.1,21.9,64,29.81,10.0,ENE,8.1,-,N/A,,Overcast,70,2013-03-25 01:54:00
10:54 PM,33.1,23.0,66,29.78,10.0,ENE,9.2,-,N/A,,Overcast,70,2013-03-25 02:54:00
11:54 PM,35.1,23.0,61,29.76,10.0,ENE,13.8,-,N/A,,Overcast,70,2013-03-25 03:54:00